Standard Bourdon tube pressure gauges for refrigeration engineering type D7 with glycerine filling

Versions


Housing ∅ Connection Alignment Housing Accuracy class Range Type DG PG Part no. Price (€) Remember
63 mm 7/16-20 UNF Bottom Stainless steel 304 1.6 -1/+9 bar RF63KTGly D701 M 2 85130701 27.95
63 mm 7/16-20 UNF Bottom Stainless steel 304 1.6 -1/+12.5 bar RF63KTGly D701 M 85131701 27.95
63 mm 7/16-20 UNF Bottom Stainless steel 304 1.6 -1/+15 bar RF63KTGly D701 M 85132701 27.95
63 mm 7/16-20 UNF Bottom Stainless steel 304 1.6 -1/+24 bar RF63KTGly D701 M 85133701 27.95
63 mm 7/16-20 UNF Bottom Stainless steel 304 1.6 -1/+30 bar RF63KTGly D701 M 85134701 27.95

Blue part no. = in-stock items

Housing ∅ Connection Alignment Housing Accuracy class Range Type DG Part no. Price (€) Remember
63 mm 7/16-20 UNF Centre back Stainless steel 304 1.6 -1/+9 bar RF63KTGly D711 M 85130711 28.75
63 mm 7/16-20 UNF Centre back Stainless steel 304 1.6 -1/+12.5 bar RF63KTGly D711 M 85131711 28.75
63 mm 7/16-20 UNF Centre back Stainless steel 304 1.6 -1/+15 bar RF63KTGly D711 M 85132711 28.75
63 mm 7/16-20 UNF Centre back Stainless steel 304 1.6 -1/+24 bar RF63KTGly D711 M 85133711 28.75
63 mm 7/16-20 UNF Centre back Stainless steel 304 1.6 -1/+30 bar RF63KTGly D711 M 85134711 28.75

Blue part no. = in-stock items

Housing ∅ Connection Alignment Housing Accuracy class Range Type DG Part no. Price (€) Remember
80 mm 7/16-20 UNF Bottom Stainless steel 304 1.0 -1/+9 bar RF80KTGly D701 M 85180701 60.80
80 mm 7/16-20 UNF Bottom Stainless steel 304 1.0 -1/+12.5 bar RF80KTGly D701 M 85181701 60.80
80 mm 7/16-20 UNF Bottom Stainless steel 304 1.0 -1/+15 bar RF80KTGly D701 M 85182701 60.80
80 mm 7/16-20 UNF Bottom Stainless steel 304 1.0 -1/+24 bar RF80KTGly D701 M 85183701 60.80
80 mm 7/16-20 UNF Bottom Stainless steel 304 1.0 -1/+30 bar RF80KTGly D701 M 85184701 60.80

Blue part no. = in-stock items

Housing ∅ Connection Alignment Housing Accuracy class Range Type DG Part no. Price (€) Remember
80 mm 7/16-20 UNF Centre back Stainless steel 304 1.0 -1/+9 bar RF80KTGly D711 M 85180711 64.05
80 mm 7/16-20 UNF Centre back Stainless steel 304 1.0 -1/+12.5 bar RF80KTGly D711 M 85181711 64.05
80 mm 7/16-20 UNF Centre back Stainless steel 304 1.0 -1/+15 bar RF80KTGly D711 M 85182711 64.05
80 mm 7/16-20 UNF Centre back Stainless steel 304 1.0 -1/+24 bar RF80KTGly D711 M 85183711 64.05
80 mm 7/16-20 UNF Centre back Stainless steel 304 1.0 -1/+30 bar RF80KTGly D711 M 85184711 64.05

Blue part no. = in-stock items

Housing ∅ Connection Alignment Housing Accuracy class Range Type DG Part no. Price (€) Remember
100 mm 7/16-20 UNF Bottom Stainless steel 304 1.0 -1/+9 bar RF100KTGly D701 M 85230701 62.30
100 mm 7/16-20 UNF Bottom Stainless steel 304 1.0 -1/+12.5 bar RF100KTGly D701 M 85231701 62.30
100 mm 7/16-20 UNF Bottom Stainless steel 304 1.0 -1/+15 bar RF100KTGly D701 M 85232701 62.30
100 mm 7/16-20 UNF Bottom Stainless steel 304 1.0 -1/+24 bar RF100KTGly D701 M 85233701 62.30
100 mm 7/16-20 UNF Bottom Stainless steel 304 1.0 -1/+30 bar RF100KTGly D701 M 85234701 62.30

Blue part no. = in-stock items

Housing ∅ Connection Alignment Housing Accuracy class Range Type DG Part no. Price (€) Remember
100 mm 7/16-20 UNF Centre back Stainless steel 304 1.0 -1/+9 bar RF100KTGly D711 M 85230711 65.35
100 mm 7/16-20 UNF Centre back Stainless steel 304 1.0 -1/+12.5 bar RF100KTGly D711 M 85231711 65.35
100 mm 7/16-20 UNF Centre back Stainless steel 304 1.0 -1/+15 bar RF100KTGly D711 M 85232711 65.35
100 mm 7/16-20 UNF Centre back Stainless steel 304 1.0 -1/+24 bar RF100KTGly D711 M 85233711 65.35
100 mm 7/16-20 UNF Centre back Stainless steel 304 1.0 -1/+30 bar RF100KTGly D711 M 85234711 65.35

Blue part no. = in-stock items

Description Format Language Download / Link
Data sheet Standard Bourdon tube pressure gauges for refrigeration engineering type D7 with glycerine filling Catalog page PDF
Afriso Data sheet Standard Bourdon tube pressure gauges for refrigeration engineering type D7 with glycerine filling
NA Operating instructions PDF
Afriso NA
Enquiry pressure gauges Pressure measuring instruments PDF
Afriso Enquiry pressure gauges
Dials for pressure gauges – graduation Pressure measuring instruments PDF
Afriso Dials for pressure gauges – graduation
Temperature scales for refrigerant: Dew point temperature - examples range -1/+24 bar Pressure measuring instruments PDF
Afriso Temperature scales for refrigerant: Dew point temperature - examples range -1/+24 bar
DNV-GL Type approval Products PDF
Afriso DNV-GL Type approval